Home > Time Zones > World Clock > Weather > India > Unnao > Past weeks

Flag for India Weather past 2 weeks in Unnao, Uttar Pradesh, India

Now
54 °F

Fog.


Feels Like: 54 °F
Forecast: 55 / 68 °F
Wind: 2 mph from North

Location: Lucknow / Amausi

Current Time: Jan 26, 2015 at 8:07:30 AM

Latest Report: Jan 26, 2015 at 7:00 AM


Visibility: 0 mi

Pressure: 30.09 "Hg

Humidity: 100%

Dew point: 54 °F

Location of UnnaoLocation

Historic Weather in Unnao — Graph

°F

Unnao temperature yesterday

Maximum temperature yesterday: 64 °F (at 2:00 PM)
Minimum temperature yesterday: 52 °F (at 5:00 AM)
Average temperature yesterday: 57 °F

Past Weeks' High & Low Weather Summary

 TemperatureHumidityPressure
High135 °F (Jan 24, 6:30 PM)100% (Jan 11, 7:30 AM)30.39 "Hg (Jan 11, 7:30 AM)
Low43 °F (Jan 11, 6:30 AM)8% (Jan 24, 6:30 PM)29.98 "Hg (Jan 13, 4:30 PM)
Average55 °F83%30.09 "Hg
* Reported Jan 11 6:30 AM — Jan 26 6:30 AM, Unnao, Weather by CustomWeather, © 2014

Note: Actual official high and low records may vary slightly from our data, if they occured in-between our weather recording intervals... More about our weather records

Advertising

Unnao weather history for previous 24 hours

 ConditionsComfort  
Time TempWeatherWind HumidityBarometerVisibility
6:30 AM
Jan 26
54 °FFog.2 mph100%30.07 "Hg1 mi
6:00 AM55 °FFog.2 mph94%30.07 "Hg0 mi
5:00 AM55 °FFog.2 mph94%30.07 "Hg0 mi
3:00 AM55 °FLight rain. Mostly cloudy.No wind94%30.07 "Hg1 mi
2:00 AM55 °FFog.No wind94%30.09 "Hg1 mi
1:00 AM55 °FLight rain. Mostly cloudy.2 mph94%30.09 "Hg1 mi
12:00 AM55 °FLight rain. Mostly cloudy.3 mph94%30.09 "Hg1 mi
11:00 PM
Jan 25
55 °FLight rain. Mostly cloudy.3 mph94%30.12 "Hg1 mi
10:00 PM57 °FLight rain. Mostly cloudy.No wind94%30.15 "Hg1 mi
9:00 PM59 °FThunderstorms. Mostly cloudy.2 mph82%30.12 "Hg1 mi
8:30 PM59 °FLight rain. Mostly cloudy.2 mph82%30.12 "Hg1 mi
8:00 PM55 °FLight rain. Mostly cloudy.No wind94%30.12 "Hg1 mi
7:30 PM57 °FLight rain. Mostly cloudy.2 mph94%30.12 "Hg1 mi
7:00 PM57 °FLight rain. Mostly cloudy.2 mph94%30.12 "Hg1 mi
6:30 PM57 °FLight rain. Mostly cloudy.2 mph94%30.12 "Hg1 mi
5:30 PM59 °FLight rain. Partly sunny.5 mph88%30.09 "Hg1 mi
4:30 PM61 °FPartly sunny.6 mph77%30.09 "Hg1 mi
4:00 PM63 °FPartly sunny.7 mph73%30.09 "Hg1 mi
3:00 PM64 °FBroken clouds.7 mph68%30.12 "Hg1 mi
2:30 PM64 °FBroken clouds.2 mph68%30.09 "Hg1 mi
2:00 PM64 °FPartly sunny.No wind64%30.09 "Hg1 mi
1:30 PM63 °FBroken clouds.No wind73%30.09 "Hg1 mi
1:00 PM63 °FPartly sunny.No wind68%30.09 "Hg1 mi
12:30 PM61 °FPartly sunny.No wind72%30.12 "Hg1 mi
12:00 PM59 °FPartly sunny.No wind77%30.15 "Hg1 mi
11:30 AM59 °FDense fog.No wind72%30.15 "Hg1 mi
11:00 AM57 °FFog.No wind77%30.15 "Hg1 mi
10:30 AM55 °FFog.No wind88%30.18 "Hg1 mi
10:00 AM55 °FFog.No wind82%30.15 "Hg1 mi
9:30 AM54 °FFog.No wind88%30.15 "Hg1 mi
8:30 AM54 °FFog.No wind88%30.12 "Hg1 mi
8:00 AM52 °FFog.No wind94%30.12 "Hg1 mi
Weather by CustomWeather, © 2014

See weather overviewHow to use our weather pages